Probability
0 0 0 0 0 0 0 0 0 0 3 3 3 3 0 0 0 0 0 10 10 6 10 6 6 6 3 6 3 3 3 3 3 3 3 0 0 3 3 3 3 0 0 0
0 0 0 0 0 0 0 0 0 0 3 3 3 0 0 0 0 0 0 0 10 6 10 6 6 6 6 6 3 3 3 3 3 3 0 0 0 0 0 0 0 0 0 0
0 0 0 0 0 0 6 3 0 0 3 0 0 0 0 0 0 0 0 0 3 3 10 6 6 3 3 6 3 3 3 3 3 3 0 0 0 0 0 0 0 0 0 0
0 0 0 0 0 0 3 3 3 0 0 0 0 0 0 0 0 3 3 0 0 3 3 0 3 3 0 0 0 0 3 3 3 3 0 0 0 0 0 0 0 0 0 0
0 0 0 0 0 0 0 0 0 0 0 0 0 0 0 3 0 3 3 0 3 0 0 0 0 0 0 0 0 3 3 3 3 3 0 0 0 0 0 0 0 0 0 0
0 0 0 0 0 0 0 0 0 0 0 0 0 0 3 0 0 0 0 0 0 0 0 0 3 3 3 3 3 3 3 3 0 0 0 0 0 0 0 0 0 0 0 0
0 0 0 0 0 0 0 0 0 0 0 0 0 0 0 0 0 0 0 0 0 3 3 0 3 3 3 3 0 0 0 0 0 0 0 0 0 0 0 0 0 0 0 0
0 0 0 0 3 0 0 0 0 0 0 0 0 0 0 0 0 0 3 3 6 6 6 3 3 3 0 0 0 0 0 3 3 0 0 0 0 0 0 0 0 0 0 0
0 0 0 0 0 0 0 0 0 0 0 0 0 0 0 0 0 0 0 0 3 6 6 6 3 3 0 0 3 3 0 3 3 0 0 0 0 0 0 0 0 0 0 0
0 0 0 0 0 0 0 0 0 0 0 0 0 0 0 0 0 0 0 0 0 3 6 6 0 0 0 0 3 3 3 3 0 0 0 0 0 0 0 0 0 0 3 3
0 0 0 0 0 0 0 0 0 0 0 0 0 0 0 0 0 0 0 0 0 3 3 3 0 0 0 0 3 3 3 3 0 0 0 0 0 0 0 0 0 3 3 3
0 0 0 0 0 0 0 0 0 0 3 0 0 0 0 0 0 3 3 0 3 3 3 3 3 0 0 3 3 3 3 3 0 3 3 3 3 0 0 0 0 0 0 3
0 0 0 0 0 0 0 0 0 3 0 0 0 0 0 0 0 3 3 3 3 3 3 3 0 0 0 3 3 3 3 3 3 3 3 3 3 3 0 0 0 0 0 0
0 0 0 0 0 0 0 0 0 3 3 0 0 0 0 0 3 3 3 3 3 3 3 3 0 0 3 3 3 3 3 3 3 3 3 3 3 3 3 3 0 0 0 0
0 0 0 0 0 0 0 0 3 3 3 0 0 3 3 3 6 3 3 3 3 3 3 0 0 3 3 3 3 3 3 3 3 3 3 3 0 0 3 3 3 0 0 0
0 0 0 0 0 0 0 0 3 3 3 3 0 3 6 6 6 6 3 3 3 3 0 0 0 3 3 3 3 3 3 3 3 3 3 3 3 3 3 3 3 3 0 0
0 0 0 0 0 0 0 0 0 0 3 3 3 6 6 6 6 3 3 3 0 0 0 0 0 3 3 3 3 3 3 3 3 3 3 3 3 3 3 3 3 3 3 0
0 0 0 0 0 0 0 0 0 0 3 3 3 3 3 3 3 3 3 0 3 3 3 0 3 3 3 3 3 3 3 3 3 3 3 3 3 3 3 3 3 3 3 0
0 0 0 0 0 0 0 0 0 0 3 3 3 3 3 3 3 3 3 0 0 0 0 0 3 3 3 3 3 3 3 3 3 3 3 3 3 3 3 3 3 3 3 0
0 0 0 0 0 0 0 0 0 3 3 3 3 3 3 3 3 3 0 0 0 0 0 0 0 3 3 3 3 3 3 3 3 3 3 3 3 3 3 3 3 3 0 0
0 0 0 0 0 0 0 0 3 3 3 3 3 3 3 3 3 3 0 0 0 0 0 0 3 3 3 3 3 3 3 3 3 3 3 3 3 3 0 0 0 0 0 0
0 0 0 0 0 0 0 0 3 3 0 0 3 3 0 0 0 0 0 0 0 0 0 0 0 0 0 0 3 3 3 3 0 0 0 0 0 0 0 0 0 0 0 0
0 0 0 0 0 0 0 0 0 3 0 0 0 0 0 0 0 0 0 0 0 0 0 0 0 0 0 0 0 0 0 0 0 0 0 0 0 0 0 0 0 0 0 0
0 0 0 0 0 0 0 0 0 0 0 0 0 0 0 0 0 0 0 0 0 0 0 0 0 0 0 0 0 0 0 0 0 0 0 0 0 0 0 0 0 0 0 0
0 0 0 0 0 0 0 0 0 0 0 0 0 0 0 0 0 0 0 0 0 0 0 0 0 0 0 0 0 0 0 0 0 0 0 0 0 0 0 0 0 0 0 0
0 0 0 0 0 0 0 0 0 0 0 0 0 0 0 0 0 0 0 0 0 0 0 0 0 0 0 0 0 0 0 0 0 0 0 0 0 0 0 0 0 0 0 0
0 0 0 0 0 0 0 0 0 0 0 0 0 0 0 0 0 0 0 0 0 0 0 0 0 0 0 0 0 0 0 0 0 0 0 0 0 0 0 0 0 0 0 0
Height
5802 5803 5804 5804 5805 5805 5804 5803 5803 5803 5803 5803 5802 5801 5800 5799 5797 5796 5794 5792 5790 5789 5788 5787 5785 5783 5782 5780 5778 5777 5775 5772 5770 5768 5765 5763 5761 5759 5757 5755 5753 5751 5748 5746
5795 5796 5796 5797 5798 5797 5797 5797 5797 5796 5797 5797 5796 5795 5794 5793 5791 5790 5789 5787 5785 5784 5782 5780 5778 5777 5775 5774 5773 5771 5769 5767 5764 5762 5760 5757 5755 5753 5750 5748 5746 5744 5741 5739
5787 5789 5788 5789 5791 5790 5790 5790 5790 5790 5791 5790 5789 5789 5788 5787 5786 5784 5783 5782 5779 5778 5776 5774 5773 5771 5770 5768 5766 5764 5763 5761 5758 5756 5754 5751 5749 5746 5744 5742 5739 5737 5734 5732
5780 5782 5781 5785 5783 5783 5783 5783 5783 5783 5783 5783 5784 5783 5782 5781 5780 5779 5777 5776 5774 5773 5771 5769 5767 5766 5764 5763 5761 5759 5756 5754 5752 5750 5747 5745 5742 5739 5737 5734 5732 5730 5727 5725
5773 5773 5774 5776 5776 5776 5776 5776 5776 5776 5776 5776 5776 5776 5775 5774 5773 5772 5771 5770 5768 5767 5765 5763 5762 5760 5758 5756 5755 5753 5751 5748 5746 5743 5741 5738 5735 5732 5730 5727 5725 5722 5719 5717
5766 5766 5767 5770 5769 5768 5770 5769 5770 5769 5770 5770 5770 5770 5770 5768 5767 5766 5765 5764 5762 5761 5759 5757 5756 5754 5752 5751 5749 5747 5745 5742 5740 5737 5734 5731 5728 5726 5723 5720 5717 5714 5711 5709
5758 5758 5759 5761 5761 5761 5763 5763 5763 5763 5763 5763 5762 5763 5763 5762 5761 5760 5758 5757 5756 5754 5753 5751 5749 5748 5746 5745 5743 5741 5739 5736 5734 5731 5728 5725 5722 5719 5715 5712 5709 5706 5703 5701
5751 5751 5754 5754 5753 5754 5755 5755 5755 5756 5756 5756 5756 5755 5755 5755 5753 5752 5751 5750 5748 5747 5746 5745 5743 5741 5740 5738 5736 5734 5731 5729 5727 5724 5721 5718 5715 5712 5708 5705 5701 5698 5695 5693
5744 5746 5746 5745 5746 5747 5747 5748 5748 5749 5749 5749 5749 5748 5748 5747 5746 5745 5743 5742 5740 5739 5739 5738 5736 5734 5733 5731 5729 5727 5724 5722 5720 5717 5715 5712 5708 5705 5701 5697 5694 5690 5688 5685
5736 5737 5738 5738 5738 5739 5740 5740 5741 5742 5742 5742 5742 5741 5740 5739 5738 5737 5736 5734 5732 5731 5731 5730 5729 5727 5726 5724 5721 5719 5717 5715 5713 5710 5708 5705 5701 5698 5694 5691 5687 5684 5681 5678
5728 5729 5730 5731 5731 5731 5732 5732 5733 5733 5733 5733 5733 5732 5732 5731 5730 5729 5727 5726 5725 5723 5723 5722 5721 5719 5718 5716 5714 5712 5710 5708 5705 5703 5700 5697 5694 5690 5687 5684 5680 5677 5674 5671
5721 5721 5722 5722 5722 5723 5724 5724 5725 5725 5725 5725 5724 5724 5723 5722 5721 5720 5719 5717 5716 5715 5715 5714 5712 5711 5710 5708 5707 5705 5702 5700 5698 5695 5693 5690 5687 5683 5679 5676 5673 5670 5667 5664
5713 5713 5714 5714 5714 5714 5715 5716 5717 5717 5716 5716 5716 5715 5715 5714 5713 5711 5711 5710 5709 5708 5706 5705 5704 5703 5702 5700 5698 5696 5694 5692 5690 5688 5685 5682 5679 5676 5673 5669 5666 5663 5659 5656
5705 5706 5706 5706 5706 5706 5707 5708 5709 5709 5708 5708 5707 5707 5706 5706 5705 5703 5703 5702 5701 5700 5699 5698 5696 5695 5693 5692 5690 5688 5686 5684 5682 5680 5677 5675 5672 5668 5665 5662 5660 5656 5653 5649
5698 5698 5698 5698 5699 5699 5699 5700 5701 5701 5700 5700 5699 5699 5698 5698 5697 5696 5695 5694 5693 5692 5691 5689 5688 5686 5684 5683 5681 5680 5678 5676 5674 5672 5669 5666 5664 5661 5658 5655 5653 5650 5646 5643
5690 5690 5691 5691 5691 5692 5692 5693 5693 5693 5692 5692 5691 5691 5690 5689 5688 5687 5686 5685 5684 5683 5682 5680 5679 5677 5676 5674 5673 5671 5670 5668 5666 5663 5661 5659 5656 5654 5651 5648 5646 5643 5640 5637
5683 5683 5683 5684 5684 5685 5685 5685 5685 5685 5684 5684 5683 5683 5682 5681 5680 5679 5678 5677 5676 5674 5673 5672 5670 5669 5667 5666 5664 5663 5661 5660 5657 5655 5653 5651 5649 5646 5644 5642 5639 5636 5634 5631
5675 5676 5676 5677 5677 5677 5677 5677 5677 5677 5676 5675 5675 5674 5674 5673 5672 5671 5670 5669 5667 5666 5665 5663 5662 5660 5659 5657 5656 5654 5652 5651 5649 5647 5645 5643 5641 5639 5637 5635 5632 5629 5627 5624
5669 5669 5669 5669 5669 5670 5670 5670 5669 5669 5668 5668 5667 5666 5665 5664 5663 5662 5661 5660 5659 5657 5656 5655 5653 5652 5650 5649 5647 5646 5644 5643 5641 5639 5637 5635 5633 5632 5630 5627 5625 5623 5620 5618
5662 5662 5662 5662 5662 5662 5662 5662 5661 5661 5660 5659 5659 5658 5657 5656 5655 5654 5652 5651 5650 5648 5647 5646 5644 5643 5641 5640 5638 5637 5636 5634 5633 5631 5629 5627 5626 5624 5622 5621 5619 5616 5614 5612
5655 5655 5655 5655 5654 5654 5654 5653 5653 5652 5651 5651 5650 5650 5649 5648 5647 5646 5644 5643 5642 5640 5639 5637 5636 5634 5633 5631 5630 5629 5627 5626 5624 5623 5621 5620 5619 5617 5615 5614 5612 5610 5608 5605
5648 5648 5648 5647 5647 5647 5646 5645 5645 5644 5643 5643 5642 5642 5641 5640 5639 5638 5637 5635 5634 5632 5631 5630 5628 5627 5625 5624 5622 5621 5620 5618 5617 5615 5614 5613 5612 5610 5609 5607 5605 5603 5601 5599
5641 5641 5641 5641 5640 5639 5639 5638 5638 5637 5636 5635 5634 5634 5633 5632 5631 5631 5630 5628 5626 5624 5623 5622 5620 5619 5618 5616 5615 5614 5612 5611 5609 5608 5607 5606 5604 5603 5602 5600 5598 5597 5594 5592
5634 5634 5634 5633 5633 5632 5632 5631 5630 5630 5629 5628 5627 5626 5626 5625 5624 5623 5621 5620 5619 5617 5616 5614 5613 5612 5610 5609 5608 5607 5605 5604 5603 5601 5600 5599 5597 5596 5595 5593 5592 5590 5588 5586
5627 5627 5627 5626 5626 5625 5625 5624 5623 5622 5622 5621 5620 5619 5618 5617 5616 5614 5613 5612 5611 5609 5608 5607 5606 5605 5603 5602 5601 5600 5598 5597 5596 5594 5593 5592 5590 5589 5588 5586 5584 5583 5581 5580
5620 5620 5619 5619 5618 5618 5618 5617 5616 5615 5615 5614 5613 5612 5611 5610 5608 5607 5606 5605 5603 5602 5601 5600 5599 5598 5596 5595 5594 5593 5591 5590 5589 5587 5586 5584 5583 5582 5580 5579 5578 5576 5575 5573
5614 5613 5612 5612 5611 5611 5610 5610 5609 5609 5608 5607 5606 5605 5604 5602 5601 5600 5599 5598 5596 5595 5594 5593 5592 5590 5589 5588 5587 5586 5584 5583 5581 5580 5579 5577 5576 5575 5573 5572 5571 5570 5568 5567
Wind_Speed
25 24 25 25 25 26 27 28 29 27 26 26 25 23 23 23 21 20 21 23 22 23 24 24 25 24 23 23 23 23 23 22 22 22 22 22 22 22 22 23 23 24 24 24
26 26 27 27 27 27 27 27 27 26 25 25 24 23 23 23 22 22 23 23 23 23 22 23 23 23 22 22 22 22 23 23 22 21 22 22 22 23 23 24 24 24 25 25
26 26 26 26 25 26 25 24 25 26 25 24 24 23 23 22 23 23 24 24 23 22 23 23 22 21 21 21 22 22 22 22 22 23 23 23 23 24 25 25 25 25 25 26
27 26 28 25 24 25 25 25 26 26 25 24 23 23 23 23 23 23 23 23 22 23 24 23 22 22 23 23 22 23 22 23 23 24 24 24 25 25 25 26 25 26 26 26
27 27 27 25 25 25 24 25 25 25 24 24 22 22 22 22 23 23 23 23 23 23 23 23 23 23 23 23 22 22 22 23 23 24 25 24 24 25 25 26 26 27 28 27
27 28 27 25 25 25 26 27 25 25 25 24 24 24 23 23 23 23 24 24 24 23 23 23 23 23 23 22 22 22 22 23 24 24 24 24 25 26 26 27 27 27 27 27
28 28 28 26 26 25 26 25 25 24 24 24 23 23 23 23 24 24 24 24 24 24 23 24 24 24 24 24 24 24 24 24 24 24 24 25 26 26 27 27 27 27 26 26
28 29 28 25 25 25 25 25 25 23 23 23 23 23 24 25 25 25 25 25 25 24 24 24 24 24 24 25 24 25 25 25 24 24 24 25 26 27 27 27 27 27 26 26
27 27 26 25 24 25 26 26 25 24 24 24 23 23 24 24 25 26 26 26 26 25 25 25 25 25 25 25 25 25 25 25 25 24 25 25 26 27 27 26 26 26 26 26
28 27 26 26 25 26 26 26 26 25 25 26 25 25 25 26 27 28 28 28 27 26 26 26 26 25 26 25 25 25 25 26 25 25 26 26 26 27 26 26 25 25 25 25
28 27 27 27 27 27 28 27 27 27 26 26 26 26 27 28 29 29 29 28 27 26 27 27 27 26 26 26 26 26 26 26 26 26 26 26 26 26 26 26 26 25 25 25
28 27 26 26 27 28 28 28 28 27 27 26 27 28 28 29 29 29 28 27 27 27 27 26 27 26 26 26 26 25 25 26 26 26 26 26 26 26 26 26 26 25 25 25
28 28 28 27 26 27 28 28 28 28 27 27 27 28 29 28 27 27 26 26 26 26 26 25 25 26 26 26 26 25 26 26 26 26 26 27 27 26 25 25 24 25 26 26
27 27 27 28 28 27 28 28 27 27 26 26 27 27 27 26 26 26 26 26 25 25 25 26 26 26 27 27 27 27 27 26 26 26 27 27 27 26 25 24 24 24 24 24
26 26 27 27 27 27 27 26 26 26 26 26 26 26 25 25 25 26 25 25 25 25 26 27 28 27 27 27 27 27 27 26 26 26 26 26 26 25 25 24 24 23 23 23
25 25 25 25 25 25 26 25 25 25 25 26 25 26 26 26 26 26 26 26 26 26 26 27 26 26 26 26 26 26 26 26 26 26 26 26 25 25 24 24 23 23 23 22
24 24 23 23 24 25 25 25 26 27 27 26 26 25 26 26 26 26 26 26 26 25 25 26 25 25 26 26 27 26 26 27 27 27 27 26 26 25 24 24 24 24 23 23
22 23 23 24 24 24 25 25 26 27 26 26 26 26 26 26 26 26 26 27 27 27 26 26 26 26 26 26 26 26 26 27 27 27 26 25 25 24 24 24 24 23 22 22
21 22 23 25 26 26 26 26 26 27 27 27 27 27 27 26 26 25 25 26 25 26 26 25 25 25 25 26 26 26 26 26 26 26 26 25 24 24 24 23 23 22 22 21
20 21 22 24 25 26 26 26 26 27 26 25 25 25 24 24 24 24 25 25 26 26 25 24 24 25 25 25 25 26 25 25 25 25 25 25 24 23 23 23 22 21 21 21
20 20 21 22 23 24 25 25 25 24 24 24 24 24 24 24 24 24 24 24 25 25 24 24 23 23 24 24 24 25 24 24 23 23 23 23 23 23 22 22 22 22 22 22
20 20 21 21 22 23 24 24 24 23 23 23 23 24 24 24 24 24 24 24 24 24 24 23 23 23 23 24 23 23 22 22 22 22 22 22 22 22 22 22 22 22 22 22
21 22 22 22 22 22 22 23 23 23 22 22 23 23 23 23 24 23 23 22 22 23 23 23 23 23 23 23 22 22 22 22 21 22 22 22 22 22 22 22 22 22 22 22
21 21 22 22 22 22 22 22 22 22 22 22 22 22 22 22 23 22 22 22 23 23 23 22 22 22 22 21 21 21 21 21 21 21 22 22 23 22 22 22 22 22 21 21
20 21 21 21 21 21 21 20 21 21 21 21 21 21 21 22 22 22 21 21 22 21 21 21 21 20 20 20 20 21 21 21 21 22 22 22 22 22 22 22 22 21 20 20
20 21 21 20 20 20 20 20 21 21 21 21 21 20 21 21 21 21 21 21 21 21 21 21 21 21 20 20 20 21 21 21 21 22 22 22 22 22 22 22 21 20 20 20
20 19 19 19 19 19 19 20 20 20 20 21 21 21 20 19 19 19 19 19 19 20 20 21 21 20 20 21 21 21 21 21 21 21 21 21 21 21 20 21 20 20 19 20
Wind_Direction
255 257 259 259 258 258 260 264 268 271 273 278 283 284 283 287 290 288 289 292 291 292 294 295 297 296 294 293 292 294 295 296 295 294 295 295 292 291 292 291 289 288 287 287
256 256 259 260 259 260 263 266 268 270 273 275 277 277 280 284 287 287 289 291 292 293 293 296 295 293 293 292 292 292 293 294 294 295 295 294 293 293 293 293 292 291 290 289
258 258 261 262 260 260 261 266 267 270 273 274 274 277 280 283 287 286 288 290 292 295 296 295 294 292 290 291 292 293 294 294 294 295 295 294 293 292 293 294 292 291 292 291
260 260 261 262 261 261 263 265 266 269 271 272 274 278 277 278 284 289 290 293 294 295 296 290 289 289 291 292 294 295 295 294 294 294 295 294 294 293 294 293 293 293 293 292
260 261 261 262 262 260 262 262 265 268 272 272 273 276 277 278 283 287 291 293 294 293 293 290 289 290 291 291 292 294 294 294 295 297 296 297 297 297 297 295 294 293 292 292
259 260 262 263 263 263 264 264 266 269 272 272 275 275 277 280 281 284 289 291 292 292 291 288 288 289 291 293 294 296 297 299 300 300 299 300 299 298 298 298 296 294 291 292
259 261 262 265 266 266 264 268 267 269 274 274 275 276 278 281 282 283 285 286 287 289 289 287 287 288 290 292 294 295 295 297 298 299 299 299 299 299 299 298 297 296 294 293
262 261 261 265 265 264 266 269 267 270 273 273 275 275 277 279 283 283 282 284 287 288 287 285 286 288 290 290 292 292 293 294 296 296 297 298 299 300 301 300 298 297 295 294
264 264 265 264 265 264 265 266 266 269 274 273 272 274 275 277 279 282 284 285 285 287 286 284 285 287 288 290 291 290 292 293 294 295 297 298 299 301 302 302 301 299 296 295
262 262 263 264 265 265 267 267 268 271 272 272 272 275 277 279 280 280 281 283 284 285 286 285 285 287 289 289 289 290 291 292 293 295 297 297 298 299 301 302 302 300 297 297
261 262 263 262 263 263 266 267 271 272 274 274 275 277 278 279 279 280 282 282 281 284 284 284 284 285 286 288 289 290 291 291 293 296 297 298 298 300 300 301 301 300 299 300
261 261 262 265 264 264 265 266 270 273 274 273 275 276 277 278 280 281 281 281 283 284 283 283 284 284 284 285 288 290 291 293 294 296 297 297 298 300 300 300 299 298 299 301
261 262 264 265 264 265 265 268 270 272 274 275 277 276 277 279 281 281 280 281 282 283 283 283 283 284 284 286 288 289 291 292 293 295 296 296 298 300 300 299 298 299 301 301
260 262 263 264 264 265 265 266 268 271 274 277 279 279 279 279 279 278 278 281 280 280 280 281 281 282 283 285 287 288 290 291 292 294 296 296 296 298 298 297 298 300 301 302
262 264 267 266 265 265 265 266 268 271 276 278 279 279 279 278 278 278 279 279 278 279 280 281 282 282 284 284 285 287 289 290 292 294 295 296 296 297 298 298 299 300 300 301
261 263 265 266 266 268 268 268 271 274 276 278 278 278 278 278 278 280 281 280 279 280 281 282 283 284 285 284 284 286 288 291 291 292 294 295 295 296 297 298 298 300 300 302
262 262 262 264 266 266 269 270 272 275 276 276 276 277 278 278 279 280 279 279 279 280 281 282 283 283 284 284 284 284 286 289 290 290 292 293 293 294 297 298 298 298 299 301
266 263 262 265 268 269 270 271 273 274 274 275 277 277 278 279 279 279 278 278 279 280 281 282 282 282 283 284 286 286 287 288 288 289 292 292 292 293 295 297 299 298 298 298
270 269 266 267 269 270 271 272 273 273 275 275 277 278 279 278 278 278 278 278 279 280 282 282 283 283 283 284 285 287 288 288 288 288 290 290 291 291 293 295 297 296 296 297
267 268 268 269 270 271 272 273 275 275 275 276 276 277 278 278 277 277 279 280 280 281 282 283 284 283 284 286 286 286 287 288 287 288 288 288 289 290 291 293 295 297 297 297
271 271 271 272 273 274 274 275 274 275 275 277 277 276 277 278 279 278 279 280 281 282 282 282 284 285 286 287 287 287 287 286 286 286 286 286 288 291 291 292 293 296 297 297
272 273 274 276 277 276 275 275 275 276 276 276 275 274 276 278 279 280 281 282 283 281 280 283 285 287 288 289 288 287 287 288 287 286 286 287 289 291 291 292 293 295 296 296
274 275 276 278 278 278 277 277 278 278 277 276 274 274 276 278 279 279 280 281 282 281 282 285 286 286 286 287 287 287 287 287 287 288 288 288 290 291 291 291 294 296 295 295
276 277 278 279 278 279 279 279 280 280 279 277 276 276 278 278 278 279 281 282 280 280 282 284 286 286 287 287 287 286 287 287 287 287 288 289 289 289 290 292 294 295 294 293
278 277 277 278 278 277 277 278 277 278 279 278 277 278 279 279 280 280 281 282 281 281 283 283 284 285 286 286 286 285 285 286 287 288 289 289 288 287 288 290 292 294 295 294
281 280 279 278 278 277 276 277 277 277 278 279 279 278 280 282 282 282 282 282 281 280 281 282 284 285 285 285 284 284 284 284 286 288 288 288 286 286 287 289 291 292 293 294
281 281 279 278 279 279 278 277 277 277 278 279 280 281 280 279 280 281 282 283 283 284 283 282 282 284 284 284 285 285 286 286 287 288 288 285 285 286 285 286 288 289 290 292